This demonstration page uses our WeatherBlox Daily Observations layout. Learn more.

Left ArrowRight Arrow

Hourly Observations for March 7, 2022

Temp ( °F °C ) Dew Point ( °F °C ) Humidity (%) Winds ( mph kmh ) Pressure ( in mb ) Visibility ( mi km ) Precip ( " mm )
12:15 am 00:15 Cloudy with Light Snow 21 -6 18 -8 86 86 NNW 9 15 30.44 1031 7 11 0.00 0.00
12:35 am 00:35 Cloudy with Light Snow 21 -6 18 -8 86 86 NW 9 15 30.44 1031 7 11 0.00 0.00
12:55 am 00:55 Cloudy with Light Snow 21 -6 18 -8 86 86 NW 10 17 30.44 1031 10 16 0.00 0.00
1:15 am 01:15 Partly Cloudy with Scattered Snow Showers 19 -7 16 -9 86 86 NW 12 19 30.45 1031 10 16 0.00 0.00
1:35 am 01:35 Mostly Cloudy with Light Snow 19 -7 16 -9 86 86 NW 10 17 30.45 1031 10 16 0.00 0.00
1:55 am 01:55 Mostly Cloudy 19 -7 16 -9 86 86 NW 13 20 30.46 1031 10 16 0.00 0.00
2:15 am 02:15 Cloudy 21 -6 18 -8 86 86 NNW 13 20 30.45 1031 10 16 0.00 0.00
2:35 am 02:35 Mostly Cloudy 19 -7 16 -9 86 86 NW 12 19 30.46 1031 10 16 0.00 0.00
2:55 am 02:55 Partly Cloudy 19 -7 16 -9 86 86 NW 13 20 30.47 1032 10 16 0.00 0.00
3:15 am 03:15 Partly Cloudy 19 -7 16 -9 86 86 NNW 12 19 30.46 1031 10 16 0.00 0.00
3:35 am 03:35 Mostly Cloudy 19 -7 16 -9 86 86 NNW 13 20 30.46 1031 10 16 0.00 0.00
3:55 am 03:55 Mostly Cloudy 19 -7 14 -10 79 79 NNW 13 20 30.46 1031 10 16 0.00 0.00
4:15 am 04:15 Partly Cloudy 18 -8 12 -11 79 79 NNW 10 17 30.49 1032 10 16 0.00 0.00
4:35 am 04:35 Mostly Cloudy 19 -7 14 -10 79 79 NNW 12 19 30.47 1032 10 16 0.00 0.00
4:55 am 04:55 Cloudy 19 -7 14 -10 79 79 NNW 12 19 30.48 1032 10 16 0.00 0.00
5:15 am 05:15 Cloudy 19 -7 14 -10 79 79 NNW 13 20 30.48 1032 10 16 0.00 0.00
5:35 am 05:35 Cloudy 19 -7 14 -10 79 79 NNW 14 22 30.48 1032 10 16 0.00 0.00
5:55 am 05:55 Cloudy 19 -7 14 -10 79 79 N 12 19 30.49 1032 10 16 0.00 0.00
6:15 am 06:15 Cloudy 18 -8 12 -11 79 79 NNW 7 11 30.51 1033 10 16 0.00 0.00
6:35 am 06:35 Mostly Cloudy 18 -8 12 -11 79 79 NW 8 13 30.51 1033 10 16 0.00 0.00
6:55 am 06:55 Clear 14 -10 10 -12 85 85 WNW 6 9 30.54 1034 10 16 0.00 0.00
7:15 am 07:15 Sunny 14 -10 10 -12 85 85 NW 6 9 30.54 1034 10 16 0.00 0.00
7:35 am 07:35 Sunny 14 -10 10 -12 85 85 NW 9 15 30.53 1034 10 16 0.00 0.00
7:55 am 07:55 Sunny 18 -8 12 -11 79 79 NW 10 17 30.52 1034 10 16 0.00 0.00
8:15 am 08:15 Sunny 18 -8 12 -11 79 79 NW 13 20 30.53 1034 10 16 0.00 0.00
8:35 am 08:35 Sunny 19 -7 12 -11 73 73 NW 10 17 30.52 1033 10 16 0.00 0.00
8:55 am 08:55 Sunny 21 -6 14 -10 74 74 NW 10 17 30.53 1034 10 16 0.00 0.00
9:15 am 09:15 Sunny 21 -6 14 -10 74 74 NW 12 19 30.53 1034 10 16 0.00 0.00
9:35 am 09:35 Sunny 23 -5 14 -10 68 68 NW 13 20 30.52 1033 10 16 0.00 0.00
9:55 am 09:55 Sunny 25 -4 16 -9 69 69 NNW 12 19 30.52 1033 10 16 0.00 0.00
10:15 am 10:15 Sunny 27 -3 18 -8 69 69 NNW 15 24 30.51 1033 10 16 0.00 0.00
10:35 am 10:35 Sunny 27 -3 18 -8 69 69 NNW 12 19 30.50 1033 10 16 0.00 0.00
10:55 am 10:55 Sunny 27 -3 18 -8 69 69 N 13 20 30.50 1033 10 16 0.00 0.00
11:15 am 11:15 Sunny 30 -1 19 -7 64 64 NNW 8 13 30.48 1032 10 16 0.00 0.00
11:35 am 11:35 Sunny 30 -1 19 -7 64 64 NNW 12 19 30.47 1032 10 16 0.00 0.00
11:55 am 11:55 Sunny 30 -1 19 -7 64 64 N 10 17 30.47 1032 10 16 0.00 0.00
12:15 pm 12:15 Sunny 30 -1 19 -7 64 64 NNW 9 15 30.47 1032 10 16 0.00 0.00
12:35 pm 12:35 Sunny 32 0 19 -7 60 60 NNW 8 13 30.45 1031 10 16 0.00 0.00
12:55 pm 12:55 Sunny 32 0 21 -6 64 64 NNW 10 17 30.44 1031 10 16 0.00 0.00
1:15 pm 13:15 Sunny 34 1 21 -6 60 60 NNW 9 15 30.43 1030 10 16 0.00 0.00
1:35 pm 13:35 Sunny 34 1 19 -7 56 56 NNW 7 11 30.41 1030 10 16 0.00 0.00
1:55 pm 13:55 Sunny 34 1 19 -7 56 56 NW 8 13 30.40 1029 10 16 0.00 0.00
2:15 pm 14:15 Sunny 34 1 18 -8 51 51 NW 10 17 30.39 1029 10 16 0.00 0.00
2:35 pm 14:35 Sunny 36 2 16 -9 44 44 NNW 10 17 30.37 1028 10 16 0.00 0.00
2:55 pm 14:55 Sunny 36 2 14 -10 41 41 NNW 10 17 30.36 1028 10 16 0.00 0.00
3:15 pm 15:15 Sunny 36 2 14 -10 41 41 NW 10 17 30.36 1028 10 16 0.00 0.00
3:35 pm 15:35 Sunny 36 2 14 -10 41 41 NW 12 19 30.35 1028 10 16 0.00 0.00
3:55 pm 15:55 Sunny 36 2 12 -11 38 38 NNW 9 15 30.35 1028 10 16 0.00 0.00
4:15 pm 16:15 Sunny 36 2 14 -10 41 41 NW 7 11 30.34 1027 10 16 0.00 0.00
4:35 pm 16:35 Sunny 36 2 12 -11 38 38 WNW 8 13 30.34 1027 10 16 0.00 0.00
4:55 pm 16:55 Sunny 36 2 12 -11 38 38 NNW 8 13 30.34 1027 10 16 0.00 0.00
5:15 pm 17:15 Sunny 34 1 12 -11 41 41 NNW 6 9 30.35 1028 10 16 0.00 0.00
5:35 pm 17:35 Sunny 34 1 12 -11 41 41 WNW 9 15 30.35 1028 10 16 0.00 0.00
5:55 pm 17:55 Sunny 34 1 12 -11 41 41 WNW 7 11 30.35 1028 10 16 0.00 0.00
6:15 pm 18:15 Sunny 32 0 14 -10 47 47 NW 7 11 30.36 1028 10 16 0.00 0.00
6:35 pm 18:35 Sunny 30 -1 14 -10 51 51 NW 5 7 30.37 1028 10 16 0.00 0.00
6:55 pm 18:55 Clear 30 -1 14 -10 51 51 NW 3 6 30.37 1028 10 16 0.00 0.00
7:15 pm 19:15 Clear 30 -1 14 -10 51 51 WNW 3 6 30.37 1028 10 16 0.00 0.00
7:35 pm 19:35 Clear 27 -3 12 -11 54 54 Calm 30.40 1029 10 16 0.00 0.00
7:55 pm 19:55 Clear 27 -3 14 -10 59 59 Calm 30.39 1029 10 16 0.00 0.00
8:15 pm 20:15 Clear 23 -5 12 -11 63 63 Calm 30.41 1030 10 16 0.00 0.00
8:35 pm 20:35 Clear 23 -5 12 -11 63 63 Calm 30.41 1030 10 16 0.00 0.00
8:55 pm 20:55 Clear 23 -5 12 -11 63 63 Calm 30.41 1030 10 16 0.00 0.00
9:15 pm 21:15 Clear 23 -5 14 -10 68 68 Calm 30.41 1030 10 16 0.00 0.00
9:35 pm 21:35 Clear 19 -7 12 -11 73 73 Calm 30.43 1030 10 16 0.00 0.00
9:55 pm 21:55 Clear 18 -8 10 -12 73 73 WSW 5 7 30.44 1031 10 16 0.00 0.00
10:15 pm 22:15 Clear 18 -8 10 -12 73 73 W 6 9 30.44 1031 10 16 0.00 0.00
10:35 pm 22:35 Clear 18 -8 12 -11 79 79 W 6 9 30.42 1030 10 16 0.00 0.00
10:55 pm 22:55 Clear 18 -8 10 -12 73 73 WSW 7 11 30.41 1030 10 16 0.00 0.00
11:15 pm 23:15 Clear 18 -8 12 -11 79 79 WSW 6 9 30.40 1029 10 16 0.00 0.00
11:35 pm 23:35 Clear 16 -9 10 -12 79 79 W 6 9 30.41 1030 10 16 0.00 0.00
11:55 pm 23:55 Clear 14 -10 10 -12 85 85 WSW 6 9 30.41 1030 10 16 0.00 0.00

Powered by AerisWeather